Weather History for Rockland, ME

Change the Weather History Date:

Friday, October 28, 2011

  Actual Average Record
Temperature  
Mean Temperature 38 °F -  
Max Temperature 46 °F 49 °F 62 °F (2010)
Min Temperature 30 °F 36 °F 28 °F (2005)
Degree Days  
Heating Degree Days 27    
Moisture  
Dew Point 22 °F    
Average Humidity 53    
Maximum Humidity 81    
Minimum Humidity 32    
Precipitation  
Precipitation 0.00 in - - ()
Sea Level Pressure  
Sea Level Pressure 29.99 in    
Wind  
Wind Speed 7 mph (WNW)    
Max Wind Speed 18 mph    
Max Gust Speed 29 mph    
Visibility 10 miles    
Events      
Averages and records for this station are not official NWS values.
T = Trace of Precipitation, MM = Missing Value Source: NWS Daily Summary

Daily Weather History Graph

Daily Weather History Graph

Search for Another Location

Airport:

Trip Planner

Search our weather history database for the weather conditions in past years. The results will help you decide how hot, cold, wet, or windy it might be!

Date:

Astronomy

Oct. 28, 2011 Rise Set
Actual Time 7:07 AM EDT 5:32 PM EDT
Civil Twilight 6:37 AM EDT 6:02 PM EDT
Nautical Twilight 6:03 AM EDT 6:36 PM EDT
Astronomical Twilight 5:30 AM EDT 7:09 PM EDT
Moon 9:25 AM EDT (10/28) 6:45 PM EDT (10/28)
Length of Visible Light 11h 24m
Length of Day
10h 25m
Waxing Crescent, 5% of the Moon is Illuminated
Oct 28
Waxing Crescent
Nov 2
First Quarter
Nov 10
Full
Nov 18
Last Quarter
Nov 25
New

Hourly Weather History & Observations

Time (EDT) Temp. Windchill Dew Point Humidity Pressure Visibility Wind Dir Wind Speed Gust Speed Precip Events Conditions
12:15 AM 35.6 °F 31.7 °F 30.2 °F 81% 29.83 in 10.0 mi NW 4.6 mph - N/A   Overcast
12:35 AM 35.6 °F - 30.2 °F 81% 29.83 in 10.0 mi Calm Calm - N/A   Overcast
12:55 AM 35.6 °F 32.8 °F 30.2 °F 81% 29.83 in 10.0 mi WNW 3.5 mph - N/A   Overcast
1:15 AM 35.6 °F 32.8 °F 30.2 °F 81% 29.83 in 10.0 mi WNW 3.5 mph - N/A   Overcast
1:35 AM 35.6 °F 30.7 °F 28.4 °F 75% 29.83 in 10.0 mi WNW 5.8 mph - N/A   Overcast
1:55 AM 35.6 °F 30.7 °F 28.4 °F 75% 29.83 in 10.0 mi WNW 5.8 mph - N/A   Mostly Cloudy
2:15 AM 35.6 °F 31.7 °F 28.4 °F 75% 29.84 in 10.0 mi WNW 4.6 mph - N/A   Partly Cloudy
2:35 AM 35.6 °F 30.7 °F 26.6 °F 70% 29.84 in 10.0 mi NW 5.8 mph - N/A   Mostly Cloudy
2:55 AM 35.6 °F 30.7 °F 26.6 °F 70% 29.84 in 10.0 mi WNW 5.8 mph - N/A   Overcast
3:15 AM 35.6 °F 30.7 °F 26.6 °F 70% 29.85 in 10.0 mi WNW 5.8 mph - N/A   Mostly Cloudy
3:35 AM 35.6 °F 30.7 °F 26.6 °F 70% 29.85 in 10.0 mi WNW 5.8 mph - N/A   Partly Cloudy
4:15 AM 35.6 °F 29.9 °F 24.8 °F 65% 29.88 in 10.0 mi WNW 6.9 mph - N/A   Clear
4:35 AM 35.6 °F 29.9 °F 24.8 °F 65% 29.89 in 10.0 mi NW 6.9 mph - N/A   Clear
4:55 AM 35.6 °F 29.9 °F 24.8 °F 65% 29.90 in 10.0 mi NW 6.9 mph - N/A   Partly Cloudy
5:15 AM 35.6 °F 31.7 °F 23.0 °F 60% 29.91 in 10.0 mi NW 4.6 mph - N/A   Partly Cloudy
5:55 AM 33.8 °F 28.6 °F 21.2 °F 60% 29.93 in 10.0 mi WNW 5.8 mph - N/A   Clear
6:15 AM 33.8 °F 27.7 °F 21.2 °F 60% 29.94 in 10.0 mi WNW 6.9 mph - N/A   Clear
6:35 AM 33.8 °F 28.6 °F 21.2 °F 60% 29.94 in 10.0 mi WNW 5.8 mph - N/A   Clear
7:15 AM 30.2 °F 23.4 °F 21.2 °F 69% 29.97 in 10.0 mi WNW 6.9 mph - N/A   Clear
7:35 AM 32.0 °F 26.4 °F 23.0 °F 69% 29.98 in 10.0 mi WNW 5.8 mph - N/A   Clear
7:55 AM 33.8 °F 27.7 °F 21.2 °F 60% 29.98 in 10.0 mi WNW 6.9 mph - N/A   Clear
8:15 AM 33.8 °F 26.4 °F 21.2 °F 60% 30.00 in 10.0 mi WNW 9.2 mph - N/A   Clear
8:35 AM 33.8 °F 27.0 °F 23.0 °F 65% 30.01 in 10.0 mi West 8.1 mph - N/A   Clear
8:55 AM 35.6 °F 29.2 °F 23.0 °F 60% 30.01 in 10.0 mi West 8.1 mph - N/A   Clear
9:15 AM 37.4 °F 31.4 °F 24.8 °F 60% 30.02 in 10.0 mi West 8.1 mph - N/A   Clear
9:35 AM 39.2 °F 35.0 °F 24.8 °F 56% 30.02 in 10.0 mi WNW 5.8 mph - N/A   Clear
9:55 AM 39.2 °F 33.0 °F 24.8 °F 56% 30.02 in 10.0 mi WNW 9.2 mph - N/A   Clear
10:15 AM 39.2 °F 33.0 °F 24.8 °F 56% 30.02 in 10.0 mi West 9.2 mph - N/A   Clear
10:35 AM 41.0 °F 33.9 °F 23.0 °F 49% 30.02 in 10.0 mi WNW 12.7 mph - N/A   Clear
11:15 AM 42.8 °F 36.2 °F 21.2 °F 42% 30.02 in 10.0 mi NW 12.7 mph 20.7 mph N/A   Clear
11:35 AM 42.8 °F 34.5 °F 21.2 °F 42% 30.03 in 10.0 mi WNW 18.4 mph 27.6 mph N/A   Partly Cloudy
11:55 AM 44.6 °F 37.4 °F 21.2 °F 39% 30.02 in 10.0 mi WNW 16.1 mph 21.9 mph N/A   Scattered Clouds
12:15 PM 44.6 °F 37.2 °F 21.2 °F 39% 30.02 in 10.0 mi West 17.3 mph 28.8 mph N/A   Scattered Clouds
12:35 PM 46.4 °F 40.4 °F 21.2 °F 37% 30.01 in 10.0 mi NW 13.8 mph 23.0 mph N/A   Scattered Clouds
12:56 PM 46.4 °F 41.5 °F 21.2 °F 37% 30.01 in 10.0 mi NW 10.4 mph 21.9 mph N/A   Clear
1:15 PM 46.4 °F 40.4 °F 19.4 °F 34% 30.00 in 10.0 mi WNW 13.8 mph 24.2 mph N/A   Clear
1:35 PM 46.4 °F 40.7 °F 19.4 °F 34% 30.01 in 10.0 mi NNW 12.7 mph 19.6 mph N/A   Clear
1:55 PM 46.4 °F 39.5 °F 19.4 °F 34% 30.01 in 10.0 mi WNW 17.3 mph 26.5 mph N/A   Partly Cloudy
2:15 PM 44.6 °F 37.2 °F 19.4 °F 37% 30.01 in 10.0 mi West 17.3 mph 23.0 mph N/A   Partly Cloudy
2:35 PM 46.4 °F 40.1 °F 19.4 °F 34% 30.03 in 10.0 mi WNW 15.0 mph 19.6 mph N/A   Mostly Cloudy
2:55 PM 46.4 °F 39.8 °F 19.4 °F 34% 30.03 in 10.0 mi West 16.1 mph 24.2 mph N/A   Mostly Cloudy
3:15 PM 46.4 °F 39.8 °F 19.4 °F 34% 30.04 in 10.0 mi West 16.1 mph 20.7 mph N/A   Scattered Clouds
3:36 PM 46.4 °F 42.4 °F 19.4 °F 34% 30.05 in 10.0 mi WNW 8.1 mph 21.9 mph N/A   Scattered Clouds
3:55 PM 46.4 °F 41.1 °F 19.4 °F 34% 30.05 in 10.0 mi WNW 11.5 mph - N/A   Mostly Cloudy
4:15 PM 46.4 °F 42.4 °F 17.6 °F 32% 30.07 in 10.0 mi NW 8.1 mph 18.4 mph N/A   Scattered Clouds
4:35 PM 46.4 °F 41.1 °F 17.6 °F 32% 30.08 in 10.0 mi WNW 11.5 mph 18.4 mph N/A   Clear
4:55 PM 44.6 °F 40.2 °F 17.6 °F 34% 30.08 in 10.0 mi WNW 8.1 mph - N/A   Clear
5:15 PM 44.6 °F 39.2 °F 17.6 °F 34% 30.08 in 10.0 mi WNW 10.4 mph - N/A   Clear
5:35 PM 44.6 °F 39.2 °F 17.6 °F 34% 30.09 in 10.0 mi WNW 10.4 mph 16.1 mph N/A   Clear
5:55 PM 42.8 °F 39.3 °F 17.6 °F 36% 30.10 in 10.0 mi NW 5.8 mph - N/A   Clear
6:15 PM 42.8 °F - 17.6 °F 36% 30.11 in 10.0 mi Calm Calm - N/A   Clear
6:35 PM 37.4 °F - 17.6 °F 45% 30.13 in 10.0 mi Calm Calm - N/A   Clear
6:55 PM 37.4 °F 33.8 °F 19.4 °F 48% 30.13 in 10.0 mi WNW 4.6 mph - N/A   Clear
7:15 PM 39.2 °F 35.9 °F 19.4 °F 45% 30.14 in 10.0 mi NW 4.6 mph - N/A   Clear
7:35 PM 35.6 °F - 19.4 °F 52% 30.15 in 10.0 mi Calm Calm - N/A   Clear
7:55 PM 37.4 °F 32.1 °F 19.4 °F 48% 30.15 in 10.0 mi WNW 6.9 mph - N/A   Clear
8:15 PM 33.8 °F - 17.6 °F 52% 30.16 in 10.0 mi Calm Calm - N/A   Clear
8:35 PM 33.8 °F 30.8 °F 19.4 °F 56% 30.17 in 10.0 mi West 3.5 mph - N/A   Clear
9:15 PM 33.8 °F 29.6 °F 19.4 °F 56% 30.19 in 10.0 mi WNW 4.6 mph - N/A   Clear
9:35 PM 33.8 °F - 19.4 °F 56% 30.20 in 10.0 mi Calm Calm - N/A   Clear
9:55 PM 30.2 °F - 19.4 °F 64% 30.20 in 10.0 mi Calm Calm - N/A   Clear
10:15 PM 32.0 °F - 23.0 °F 69% 30.21 in 10.0 mi Calm Calm - N/A   Clear
10:35 PM 30.2 °F - 19.4 °F 64% 30.21 in 10.0 mi Calm Calm - N/A   Clear
10:55 PM 28.4 °F 23.3 °F 21.2 °F 74% 30.21 in 10.0 mi WNW 4.6 mph - N/A   Clear
11:15 PM 26.6 °F - 19.4 °F 74% 30.21 in 10.0 mi Calm Calm - N/A   Clear
11:35 PM 28.4 °F - 21.2 °F 74% 30.22 in 10.0 mi Calm Calm - N/A   Clear
11:55 PM 28.4 °F - 21.2 °F 74% 30.23 in 10.0 mi Calm Calm - N/A   Clear